Regional Weather Roundup
Issued by NWS

Home | Current Version | Previous Version | Text Only | Print | Product List | Glossary On
Versions: 1 2 3 4 5 6 7 8 9 10 11 12 13 14 15 16 17 18 19 20 21 22 23 24 25 26 27 28 29 30 31 32 33 34 35 36 37 38 39 40 41 42 43 44 45 46 47 48 49 50
000
ASUS44 KLUB 260401
RWRTX
WEST TEXAS WEATHER ROUNDUP
NATIONAL WEATHER SERVICE LUBBOCK TX
1100 PM CDT SAT APR 25 2015

NOTE: "FAIR" INDICATES FEW OR NO CLOUDS BELOW 12,000 FEET WITH NO
SIGNIFICANT WEATHER AND/OR OBSTRUCTIONS TO VISIBILITY.

TXZ004-006>008-010-012-014-016-OKZ002-260500-
TEXAS PANHANDLE/OKLAHOMA PANHANDLE

CITY           SKY/WX    TMP DP  RH WIND       PRES   REMARKS
AMARILLO       CLEAR     58  32  37 SW12      29.72S
BORGER         PTCLDY    69  29  22 SW10      29.68R
CANADIAN       CLOUDY    70  37  29 SE8       29.65S
DALHART        PTCLDY    53  34  48 SW7       29.71R
DUMAS          PTCLDY    58  28  32 SW10      29.70S
GUYMON         PTCLDY    66  38  35 E13       29.67R
$$

TXZ026-029-035-045-048-260500-
SOUTHERN PANHANDLE/SOUTH PLAINS/ROLLING PLAINS

CITY           SKY/WX    TMP DP  RH WIND       PRES   REMARKS
CHILDRESS      CLEAR     65  41  41 SW9       29.67R
SEMINOLE       CLEAR     61  26  25 W9        29.78S
LUBBOCK        CLEAR     64  28  25 SW9       29.73S
$$

TXZ052-054-060>062-072-078-127-140-154-169-260500-
PERMIAN BASIN/CONCHO VALLEY/BIG COUNTRY/EDWARDS PLATEAU

CITY           SKY/WX    TMP DP  RH WIND       PRES   REMARKS
ABILENE        CLEAR     65  43  44 S8        29.73R
BRADY          CLEAR     66  43  42 CALM      29.75S
JUNCTION       CLEAR     65  38  36 W3        29.76R
MIDLAND        CLEAR     63  36  36 W6        29.78R
ODESSA         CLEAR     67  28  23 W6        29.78R
SAN ANGELO     CLEAR     64  43  46 S7        29.74R
SWEETWATER     CLEAR     63  43  47 S9        29.77S
WINK           CLEAR     62  19  19 N5        29.74S
$$

TXZ055-058-074-075-080-082-260500-
FAR WEST/SOUTHWEST MOUNTAINS/TRANS PECOS

CITY           SKY/WX    TMP DP  RH WIND       PRES   REMARKS
ALPINE         CLEAR     52  34  51 S7        29.92S
DRYDEN           N/A     70  51  51 E5        29.74S
EL PASO        PTCLDY    71  19  14 SW15      29.81R
FORT STOCKTON  CLEAR     64  29  26 SW7       29.78S
MARFA          CLEAR     46  36  66 N6        29.90S
$$

TXZ014-016-019-021>030-083-260500
TEXAS TECH WEST TEXAS MESONET/TEXAS PANHANDLE/NORTHERN SOUTH PLAINS

CITY           SKY/WX    TMP DP  RH WIND       PRES   REMARKS
ABERNATHY 5ENE   N/A     57  37  46 SW10      29.75S
AMARILLO 9NNE    N/A     60  30  32 SW7       29.70S
AMARILLO 7SSE    N/A     57  31  36 SW8       29.74R
AMHERST 1NE      N/A     58  29  32 SW3       29.75S
BOOTLEG 11WNW    N/A     53  27  36 W9        29.78R
CANADIAN 6E      N/A     66  38  35 E10       29.64S
CAPROCK CYN SP   N/A     65  34  31 W8        29.71R
CHILDRESS 2NNE   N/A     71  35  27 SW13      29.66R
CLARENDON 2WSW   N/A     61  31  32 SW9       29.69S
CLAUDE 12SW      N/A     66  29  25 SW5       29.72S
DIMMITT 2NE      N/A     58  30  35 S7        29.74S
FLOYDADA 2NNE    N/A     60  32  34 S8        29.73S
FRIONA 2NE       N/A     55  27  34 S9        29.75S
GOODLETT 3W      N/A     62  46  55 SW8       29.64S
HART 3N          N/A     55  33  43 S8        29.75S
HEREFORD 2NW     N/A     59  28  30 SW6       29.74S
MCLEAN 1E        N/A     66  32  28 SW10      29.67R
MEMPHIS 1NE      N/A     65  35  32 SW2       29.66R
MULESHOE 2SSW    N/A     53  30  40 S8        29.75S
OLTON 6S         N/A     60  30  32 SW2       29.75R
PALO DURO SP     N/A     65  30  26 SW7       29.73S
PAMPA 2E         N/A     63  35  34 SW8       29.69R
PLAINVIEW 1S     N/A     58  33  39 W2        29.73S
SILVERTON 7ESE   N/A     53  39  60 SW9       29.73S
TULIA 2ENE       N/A     58  35  42 SW7       29.73S
UMBARGER 3NNE    N/A     58  32  37 SW7       29.74S
$$

TXZ033>036-039>041-045>048-260500
TEXAS TECH WEST TEXAS MESONET/SOUTH PLAINS

CITY           SKY/WX    TMP DP  RH WIND       PRES   REMARKS
AIKEN 3WSW       N/A     56  34  43 S7        29.75S
ANDREWS 2NE      N/A     65  21  19 SW7       29.78R
ANTON 6SSW       N/A     58  30  34 S9        29.75R
BROWNFIELD 2S    N/A     59  28  30 SW8       29.76S
DENVR CTY 7WNW   N/A     59  23  24 SW12      29.77S
GAIL 2ESE        N/A     61  30  30 SW7       29.73S
LAMESA 2SE       N/A     60  28  29 SW7       29.76S
LEVELLAND 4S     N/A     58  27  30 S8        29.75S
LUBBOCK 3WNW     N/A     66  25  20 SW8       29.74S
MORTON 1ENE      N/A     61  26  26 S10       29.75S
ODONNELL 1N      N/A     58  34  40 SW7       29.75S
PLAINS 3N        N/A     57  29  33 SW9       29.77S
RALLS 1SE        N/A     60  31  32 SW10      29.75S
REESE CENTER     N/A     58  27  30 SW10      29.75R
SEAGRAVES 1SW    N/A     56  27  33 S8        29.77R
SEMINOLE 2NNE    N/A     65  23  20 SW6       29.77R
SLATON 2NE       N/A     64  28  26 SW12      29.74S
SNYDER 3E        N/A     64  37  36 S6        29.73S
SUNDOWN 8SW      N/A     50  30  45 S9        29.76S
TAHOKA 3NNE      N/A     60  29  29 SW8       29.75S
WOLFFORTH 6SSW   N/A     59  28  30 S8        29.75S
$$

TXZ031-032-036>038-042>044-260500-
TEXAS TECH WEST TEXAS MESONET/ROLLING PLAINS

CITY           SKY/WX    TMP DP  RH WIND       PRES   REMARKS
ASPERMONT 3NE    N/A     64  44  49 S9        29.69S
FLUVANNA 3WNW    N/A     65  26  23 SW7       29.74R
GRAHAM 5SSW      N/A     66  26  22 SW9       29.74S
GUTHRIE 10WSW    N/A     64  38  38 S2        29.69R
HASKELL 1NW      N/A     65  49  55 S6        29.69R
JAYTON 1SSE      N/A     64  39  39 SW5       29.70S
KNOX CITY 3NW    N/A     61  49  65 S8        29.68S
LK A HENRY 1NW   N/A     64  34  33 SW7       29.72R
NORTHFIELD 1S    N/A     66  38  36 SW8       29.67S
ODELL 4ENE       N/A     67  45  45 SW9       29.65R
PADUCAH 10SW     N/A     66  36  32 SW10      29.68S
POST 1NE         N/A     65  31  27 SW6       29.73R
RRING SPRGS 3N   N/A     60  39  47 W8        29.71S
SEYMOUR 3NW      N/A     62  51  67 S3        29.67R
SPUR 1W          N/A     58  38  47 SW1       29.70S
WEINERT 2NNE     N/A     62  51  68 S7        29.68S
WHITE RVR 6NE    N/A     66  29  25 SW7       29.72S
$$

TXZ052-054-060>062-072-078-127-140-154-169-260500-
TEXAS TECH WEST TEXAS MESONET/PERMIAN BASIN/
CONCHO VALLEY/BIG COUNTRY/EDWARDS PLATEAU

CITY           SKY/WX    TMP DP  RH WIND       PRES   REMARKS
COYANOSA 2N      N/A     60  26  26 S7        29.75S
JUNCTION 1SSW    N/A     57  41  54 SE2       29.76S
MERTZON 3NNE     N/A     60  40  48 S5        29.77R
SAN ANGELO 7NW   N/A     63  41  43 NE2       29.74S
STRLNG CT 4WSW   N/A     59  41  51 CALM      29.76S
ST LAWRNCE 5SW   N/A     65  38  36 SW6       29.76S
SWEETWATR 11SW   N/A     63  39  42 S5        29.76S
WALL 1E          N/A     62  46  55 SE8       29.75S
$$

TXZ055-058-074-075-080-082-260500-
TEXAS TECH WEST TEXAS MESONET/FAR WEST/SOUTHWEST MOUNTAINS/TRANS PECOS

CITY           SKY/WX    TMP DP  RH WIND       PRES   REMARKS
PRSMN GAP BBNP   N/A     73  26  17 N8        29.75S
$$


USA.gov is the U.S. government's official web portal to all federal, state and local government web resources and services.